When you browse on this site, cookies collect data to enhance your experience and personalize the content and advertising you see.
Visit our Privacy Policy to learn more. By continuing to use the site, you agree to this use of cookies and data.
  • Em Portugal
  • Lista de países
  • Para 7 dias
  • Temperatura da água
  • Mapa do tempo
  • Widgets de tempo
  • user-avatar
    Iniciar Sessão

    Previsão horária em Akaba

    Hoje, 25 Agosto, Domingo

    Tempo Temperatura Precipitação Vento Pressão Humidade
    00:00 +30°C° 0 mm 2 m/s 746 mmHg 60%
    01:00 +29°C° 0 mm 1 m/s 746 mmHg 61%
    02:00 +29°C° 0 mm 1 m/s 746 mmHg 63%
    03:00 +28°C° 0 mm 1 m/s 746 mmHg 64%
    04:00 +28°C° 0 mm 1 m/s 746 mmHg 66%
    05:00 +28°C° 0 mm 2 m/s 746 mmHg 67%
    06:00 +29°C° 0 mm 2 m/s 746 mmHg 59%
    07:00 +31°C° 0 mm 2 m/s 746 mmHg 52%
    08:00 +34°C° 0 mm 2 m/s 747 mmHg 44%
    09:00 +36°C° 0 mm 2 m/s 746 mmHg 38%
    10:00 +38°C° 0 mm 2 m/s 746 mmHg 33%
    11:00 +40°C° 0 mm 2 m/s 746 mmHg 27%
    12:00 +41°C° 0 mm 2 m/s 745 mmHg 24%
    13:00 +42°C° 0 mm 2 m/s 745 mmHg 21%
    14:00 +44°C° 0 mm 3 m/s 744 mmHg 17%
    15:00 +44°C° 0 mm 3 m/s 744 mmHg 17%
    16:00 +44°C° 0 mm 4 m/s 744 mmHg 17%
    17:00 +43°C° 0 mm 5 m/s 744 mmHg 18%
    18:00 +40°C° 0 mm 4 m/s 745 mmHg 26%
    19:00 +36°C° 0 mm 4 m/s 745 mmHg 35%
    20:00 +34°C° 0 mm 3 m/s 745 mmHg 44%
    21:00 +33°C° 0 mm 3 m/s 746 mmHg 47%
    22:00 +31°C° 0 mm 2 m/s 746 mmHg 51%
    23:00 +30°C° 0 mm 2 m/s 746 mmHg 54%

    Amanhã, 26 Agosto, Segunda-feira

    Tempo Temperatura Precipitação Vento Pressão Humidade
    00:00 +29°C° 0 mm 2 m/s 746 mmHg 54%
    01:00 +29°C° 0 mm 2 m/s 746 mmHg 54%
    02:00 +29°C° 0 mm 2 m/s 746 mmHg 55%
    03:00 +28°C° 0 mm 2 m/s 746 mmHg 55%
    04:00 +28°C° 0 mm 2 m/s 746 mmHg 56%
    05:00 +27°C° 0 mm 2 m/s 746 mmHg 57%
    06:00 +29°C° 0 mm 2 m/s 746 mmHg 50%
    07:00 +32°C° 0 mm 2 m/s 746 mmHg 43%
    08:00 +35°C° 0 mm 2 m/s 746 mmHg 36%
    09:00 +37°C° 0 mm 2 m/s 746 mmHg 31%
    10:00 +39°C° 0 mm 3 m/s 746 mmHg 27%
    11:00 +40°C° 0 mm 3 m/s 746 mmHg 23%
    12:00 +42°C° 0 mm 3 m/s 745 mmHg 21%
    13:00 +43°C° 0 mm 3 m/s 745 mmHg 20%
    14:00 +44°C° 0 mm 3 m/s 744 mmHg 18%
    15:00 +44°C° 0 mm 3 m/s 744 mmHg 18%
    16:00 +44°C° 0 mm 4 m/s 744 mmHg 18%
    17:00 +44°C° 0 mm 4 m/s 743 mmHg 18%
    18:00 +41°C° 0 mm 4 m/s 744 mmHg 28%
    19:00 +36°C° 0 mm 4 m/s 745 mmHg 38%
    20:00 +33°C° 0 mm 4 m/s 746 mmHg 47%
    21:00 +31°C° 0 mm 3 m/s 746 mmHg 50%
    22:00 +30°C° 0 mm 3 m/s 746 mmHg 53%
    23:00 +29°C° 0 mm 2 m/s 747 mmHg 56%

    Depois de amanhã, 27 Agosto, Terça-feira

    Tempo Temperatura Precipitação Vento Pressão Humidade
    00:00 +29°C° 0 mm 2 m/s 746 mmHg 56%
    01:00 +28°C° 0 mm 2 m/s 746 mmHg 57%
    02:00 +28°C° 0 mm 2 m/s 746 mmHg 58%
    03:00 +27°C° 0 mm 2 m/s 746 mmHg 58%
    04:00 +27°C° 0 mm 2 m/s 746 mmHg 59%
    05:00 +26°C° 0 mm 1 m/s 746 mmHg 59%
    06:00 +28°C° 0 mm 2 m/s 746 mmHg 51%
    07:00 +31°C° 0 mm 2 m/s 746 mmHg 43%
    08:00 +34°C° 0 mm 2 m/s 746 mmHg 34%
    09:00 +36°C° 0 mm 2 m/s 746 mmHg 30%
    10:00 +38°C° 0 mm 3 m/s 746 mmHg 26%
    11:00 +40°C° 0 mm 3 m/s 746 mmHg 22%
    12:00 +42°C° 0 mm 3 m/s 745 mmHg 21%
    13:00 +43°C° 0 mm 3 m/s 745 mmHg 19%
    14:00 +44°C° 0 mm 4 m/s 744 mmHg 18%
    15:00 +43°C° 0 mm 5 m/s 744 mmHg 18%
    16:00 +42°C° 0 mm 6 m/s 744 mmHg 18%
    17:00 +43°C° 0 mm 7 m/s 744 mmHg 19%
    18:00 +39°C° 0 mm 6 m/s 744 mmHg 28%
    19:00 +35°C° 0 mm 5 m/s 745 mmHg 38%
    20:00 +32°C° 0 mm 4 m/s 745 mmHg 47%
    21:00 +30°C° 0 mm 4 m/s 746 mmHg 50%
    22:00 +29°C° 0 mm 3 m/s 746 mmHg 52%
    23:00 +28°C° 0 mm 3 m/s 746 mmHg 54%

    28 Agosto, Quarta-feira

    Tempo Temperatura Precipitação Vento Pressão Humidade
    00:00 +28°C° 0 mm 2 m/s 746 mmHg 56%
    01:00 +27°C° 0 mm 2 m/s 746 mmHg 58%
    02:00 +26°C° 0 mm 2 m/s 746 mmHg 59%
    03:00 +26°C° 0 mm 2 m/s 746 mmHg 61%
    04:00 +25°C° 0 mm 2 m/s 746 mmHg 62%
    05:00 +25°C° 0 mm 2 m/s 746 mmHg 63%
    06:00 +27°C° 0 mm 2 m/s 746 mmHg 54%
    07:00 +29°C° 0 mm 3 m/s 746 mmHg 44%
    08:00 +31°C° 0 mm 3 m/s 746 mmHg 34%
    09:00 +34°C° 0 mm 3 m/s 745 mmHg 30%
    10:00 +36°C° 0 mm 3 m/s 745 mmHg 26%
    11:00 +38°C° 0 mm 3 m/s 745 mmHg 23%
    12:00 +40°C° 0 mm 4 m/s 744 mmHg 21%
    13:00 +42°C° 0 mm 4 m/s 744 mmHg 20%
    14:00 +43°C° 0 mm 4 m/s 743 mmHg 19%
    15:00 +42°C° 0 mm 5 m/s 743 mmHg 20%
    16:00 +42°C° 0 mm 6 m/s 743 mmHg 20%
    17:00 +41°C° 0 mm 7 m/s 743 mmHg 21%
    18:00 +39°C° 0 mm 6 m/s 743 mmHg 31%
    19:00 +35°C° 0 mm 5 m/s 744 mmHg 41%
    20:00 +32°C° 0 mm 5 m/s 745 mmHg 51%
    21:00 +30°C° 0 mm 4 m/s 745 mmHg 55%
    22:00 +29°C° 0 mm 3 m/s 745 mmHg 58%
    23:00 +28°C° 0 mm 2 m/s 745 mmHg 62%

    29 Agosto, Quinta-feira

    Tempo Temperatura Precipitação Vento Pressão Humidade
    00:00 +28°C° 0 mm 2 m/s 745 mmHg 63%
    01:00 +27°C° 0 mm 2 m/s 745 mmHg 63%
    02:00 +27°C° 0 mm 2 m/s 745 mmHg 64%
    03:00 +26°C° 0 mm 2 m/s 745 mmHg 64%
    04:00 +26°C° 0 mm 2 m/s 745 mmHg 65%
    05:00 +25°C° 0 mm 2 m/s 745 mmHg 65%
    06:00 +28°C° 0 mm 2 m/s 745 mmHg 57%
    07:00 +30°C° 0 mm 3 m/s 745 mmHg 50%
    08:00 +33°C° 0 mm 3 m/s 745 mmHg 42%
    09:00 +35°C° 0 mm 3 m/s 745 mmHg 37%
    10:00 +36°C° 0 mm 4 m/s 745 mmHg 32%
    11:00 +38°C° 0 mm 4 m/s 744 mmHg 27%
    12:00 +41°C° 0 mm 4 m/s 744 mmHg 25%
    13:00 +42°C° 0 mm 5 m/s 743 mmHg 23%
    14:00 +43°C° 0 mm 5 m/s 743 mmHg 21%
    15:00 +42°C° 0 mm 5 m/s 743 mmHg 22%
    16:00 +42°C° 0 mm 6 m/s 743 mmHg 23%
    17:00 +41°C° 0 mm 6 m/s 742 mmHg 24%
    18:00 +39°C° 0 mm 6 m/s 743 mmHg 34%
    19:00 +35°C° 0 mm 5 m/s 744 mmHg 45%
    20:00 +32°C° 0 mm 5 m/s 744 mmHg 56%
    21:00 +30°C° 0 mm 4 m/s 745 mmHg 61%
    22:00 +29°C° 0 mm 4 m/s 745 mmHg 65%
    23:00 +28°C° 0 mm 3 m/s 745 mmHg 70%

    30 Agosto, Sexta-feira

    Tempo Temperatura Precipitação Vento Pressão Humidade
    00:00 +27°C° 0 mm 3 m/s 745 mmHg 71%
    01:00 +27°C° 0 mm 3 m/s 745 mmHg 72%
    02:00 +26°C° 0 mm 3 m/s 745 mmHg 72%
    03:00 +26°C° 0 mm 2 m/s 745 mmHg 73%
    04:00 +26°C° 0 mm 2 m/s 745 mmHg 74%
    05:00 +25°C° 0 mm 2 m/s 745 mmHg 74%
    06:00 +27°C° 0 mm 3 m/s 745 mmHg 65%
    07:00 +29°C° 0 mm 3 m/s 745 mmHg 55%
    08:00 +32°C° 0 mm 4 m/s 745 mmHg 46%
    09:00 +34°C° 0 mm 4 m/s 745 mmHg 40%
    10:00 +37°C° 0 mm 4 m/s 745 mmHg 33%
    11:00 +40°C° 0 mm 4 m/s 744 mmHg 27%
    12:00 +41°C° 0 mm 4 m/s 744 mmHg 25%
    13:00 +42°C° 0 mm 4 m/s 743 mmHg 24%
    14:00 +43°C° 0 mm 4 m/s 743 mmHg 22%
    15:00 +43°C° 0 mm 5 m/s 743 mmHg 22%
    16:00 +42°C° 0 mm 5 m/s 743 mmHg 23%
    17:00 +41°C° 0 mm 5 m/s 742 mmHg 23%
    18:00 +37°C° 0 mm 5 m/s 743 mmHg 37%
    19:00 +34°C° 0 mm 5 m/s 744 mmHg 50%
    20:00 +30°C° 0 mm 5 m/s 744 mmHg 63%
    21:00 +29°C° 0 mm 4 m/s 745 mmHg 69%
    22:00 +28°C° 0 mm 3 m/s 745 mmHg 74%
    23:00 +27°C° 0 mm 2 m/s 745 mmHg 79%
    Mostrar mais